Regional Weather Roundup
Issued by NWS Albany, NY

Home | Current Version | Previous Version | Text Only | Print | Product List | Glossary On
Versions: 1 2 3 4 5 6 7 8 9 10 11 12 13 14 15 16 17 18 19 20 21 22 23 24 25 26 27 28 29 30 31 32 33 34 35 36 37 38 39 40 41 42 43 44 45 46 47 48 49 50
000
ASUS41 KALY 191410
RWRALY

NEW YORK STATE HOURLY WEATHER ROUNDUP
NATIONAL WEATHER SERVICE ALBANY NY
1000 AM EDT SUN OCT 19 2014

NOTE: "FAIR" INDICATES FEW OR NO CLOUDS BELOW 12,000 FEET WITH NO
SIGNIFICANT WEATHER AND/OR NO OBSTRUCTIONS TO VISIBILITY.

NYZ032-033-038>043-046>054-057>066-NYZ062>081-191500-
EAST


CITY           SKY/WX    TMP DP  RH WIND       PRES   REMARKS
ALBANY         PTSUNNY   46  33  60 NW22      29.91R
GLENS FALLS    MOSUNNY   47  30  51 NW13G21   29.89S
POUGHKEEPSIE   CLOUDY    52  33  48 NW10G21   29.90R
NEWBURGH       PTSUNNY   48  36  61 NW14G23   29.91R
MONTGOMERY     MOSUNNY   49  34  56 NW12G21   29.90R
WHITE PLAINS   PTSUNNY   50  35  56 NW16G25   29.86R
ISLIP          CLOUDY    53  38  56 N17G28    29.82S
NEW YORK CITY  PTSUNNY   52  39  61 NW18G30   29.88R
CENTRAL PARK   CLOUDY    52  36  54 MISG      29.91R
$$

NYZ005>009-017-018-044>046-055-056-191500-
CENTRAL


CITY           SKY/WX    TMP DP  RH WIND       PRES   REMARKS
FULTON         CLOUDY    41  28  60 NW15G22   30.03R
SYRACUSE       CLOUDY    41  31  66 NW9       30.02R
ROME           CLOUDY    39  32  76 W12       30.02R WCI  32
ELMIRA         CLOUDY    40  28  62 VRB5G16   30.05R
BINGHAMTON     CLOUDY    36  25  64 N22G30    29.98S WCI  25
MONTICELLO     CLOUDY    39  36  87 NW18G26   29.92R WCI  30
$$

NYZ026>034-041>043-191500-
NORTH


CITY           SKY/WX    TMP DP  RH WIND       PRES   REMARKS
WATERTOWN      CLOUDY    41  27  57 NW13      30.03R
FORT DRUM      NOT AVBL
MASSENA        CLOUDY    41  33  73 W12       29.97R
SARANAC LAKE   LGT SNOW  34  31  88 W8        29.88S FOG     WCI  27
PLATTSBURGH    CLOUDY    44  32  62 NW12      29.90S
$$

NYZ001>004-010>016-019>021-191500-
WEST


CITY           SKY/WX    TMP DP  RH WIND       PRES   REMARKS
NIAGARA FALLS  CLOUDY    40  27  59 NW10      30.12R WCI  33
BUFFALO        PTSUNNY   40  26  57 NW13G20   30.12R WCI  32
DUNKIRK        CLOUDY    41  29  62 NW13      30.13R
JAMESTOWN      CLOUDY    36  28  75 NW5       30.10R WCI  32
WELLSVILLE     CLOUDY    34  24  67 NW15G24   30.06R WCI  24
ROCHESTER      CLOUDY    40  27  59 NW12      30.09R WCI  33
PENN YAN       CLOUDY    40  29  64 NW12G18   30.06R WCI  33
$$

             KEY
       WCI = WIND CHILL INDEX
       VSB = VISIBILITY
       HX  = HEAT INDEX
$$


USA.gov is the U.S. government's official web portal to all federal, state and local government web resources and services.